Flag for Germany Weather past 2 weeks in Papenburg, Lower Saxony, Germany

Now
62 °F

Fog.


Feels Like: 62 °F
Forecast: 56 / 67 °F
Wind: 2 mph from Northeast

Location: Emden-Koenigspolder

Current Time: Aug 31, 2015 at 5:28:35 AM

Latest Report: Aug 31, 2015 at 4:00 AM


Visibility: 4 mi

Pressure: 29.98 "Hg

Humidity: 96%

Dew point: 61 °F

Location of PapenburgLocation

Historic Weather in Papenburg — Graph

°F

Papenburg temperature yesterday

Maximum temperature yesterday: 72 °F (at 3:00 PM)
Minimum temperature yesterday: 54 °F (at 1:00 AM)
Average temperature yesterday: 63 °F

Past Weeks' High & Low Weather Summary

 TemperatureHumidityPressure
High77 °F (Aug 21, 4:00 PM)100% (Aug 18, 6:00 AM)30.25 "Hg (Aug 18, 6:00 AM)
Low52 °F (Aug 23, 6:00 AM)40% (Aug 22, 2:00 PM)29.47 "Hg (Aug 24, 6:00 PM)
Average63 °F81%29.96 "Hg
* Reported Aug 16 4:00 AM — Aug 31 4:00 AM, Papenburg, Weather by CustomWeather, © 2015

Note: Actual official high and low records may vary slightly from our data, if they occured in-between our weather recording intervals... More about our weather records

Advertising

Papenburg weather history for previous 24 hours

 ConditionsComfort  
Time TempWeatherWind HumidityBarometerVisibility
4:00 AM
Mon, Aug 31
62 °FFog.2 mph96%29.98 "Hg4 mi
3:00 AM62 °FFog.2 mph94%29.98 "Hg4 mi
2:00 AM60 °FFog.2 mph95%30.01 "Hg4 mi
1:00 AM60 °FFog.2 mph98%30.00 "Hg4 mi
12:00 AM60 °FFog.2 mph97%30.00 "Hg3 mi
11:00 PM
Sun, Aug 30
61 °FPassing clouds.2 mph94%30.01 "Hg7 mi
10:00 PM62 °FOvercast.2 mph90%30.03 "Hg8 mi
9:00 PM64 °FOvercast.3 mph89%30.01 "Hg6 mi
8:00 PM66 °FOvercast.3 mph83%30.02 "Hg10 mi
7:00 PM67 °FOvercast.5 mph78%30.02 "Hg14 mi
6:00 PM69 °FOvercast.6 mph77%30.02 "Hg9 mi
4:00 PM71 °FOvercast.6 mph67%30.03 "Hg8 mi
3:00 PM72 °FOvercast.6 mph62%30.04 "Hg10 mi
2:00 PM71 °FOvercast.5 mph64%30.06 "Hg7 mi
1:00 PM71 °FOvercast.6 mph61%30.07 "Hg9 mi
12:00 PM69 °FOvercast.5 mph65%30.08 "Hg17 mi
11:00 AM68 °FOvercast.5 mph65%30.07 "Hg7 mi
10:00 AM64 °FOvercast.3 mph76%30.09 "Hg16 mi
9:00 AM63 °FOvercast.3 mph80%30.10 "Hg11 mi
8:00 AM58 °FFog.2 mph90%30.09 "Hg4 mi
7:00 AM55 °FFog.1 mph97%30.10 "Hg3 mi
6:00 AM57 °FOvercast.1 mph92%30.10 "Hg5 mi
Weather by CustomWeather, © 2015

See weather overviewHow to use our weather pages